Home > Weather > Lugo > Past weeks

Flag for Spain Past Weather in Lugo, Galicia, Spain — Yesterday and Last 2 Weeks

Now
68 °F

Passing clouds.


Feels Like: 68 °F
Forecast: 59 / 85 °F
Wind: No wind

Location: Santiago / Labacolla

Current Time: Aug 27, 2016 at 1:30:49 AM

Latest Report: Aug 27, 2016 at 12:30 AM


Visibility: N/A

Pressure: 30.01 "Hg

Humidity: 88%

Dew Point: 64 °F

Location of LugoLocation

Past Weather in Lugo — Graph

°F

Lugo Temperature Yesterday

Maximum temperature yesterday: 86 °F (at 6:30 PM)
Minimum temperature yesterday: 63 °F (at 12:00 AM)
Average temperature yesterday: 70 °F

High & Low Weather Summary for the Past Weeks

 TemperatureHumidityPressure
High95 °F (Aug 22, 3:30 PM)100% (Aug 14, 6:00 AM)30.30 "Hg (Aug 14, 6:00 AM)
Low52 °F (Aug 14, 6:00 AM)14% (Aug 13, 6:30 PM)29.86 "Hg (Aug 19, 4:30 AM)
Average68 °F70%30.09 "Hg
* Reported Aug 12 12:00 AM — Aug 27 12:30 AM, Lugo, Weather by CustomWeather, © 2016

Note: Actual official high and low records may vary slightly from our data, if they occured in-between our weather recording intervals... More about our weather records

Advertising

Lugo Weather History for the Previous 24 Hours

Scroll right to see more
 ConditionsComfort  
Time TempWeatherWind HumidityBarometerVisibility
12:30 AM
Sat, Aug 27
68 °FPassing clouds.No wind88%30.01 "HgN/A
12:00 AM68 °FPassing clouds.No wind88%30.01 "HgN/A
11:30 PM
Fri, Aug 26
68 °FPassing clouds.No wind88%30.01 "HgN/A
11:00 PM70 °FPassing clouds.No wind88%30.01 "HgN/A
10:30 PM70 °FPassing clouds.1 mph88%30.01 "HgN/A
10:00 PM72 °FPassing clouds.No wind83%30.01 "HgN/A
9:30 PM73 °FPassing clouds.1 mph83%30.01 "HgN/A
9:00 PM77 °FPassing clouds.3 mph74%29.98 "HgN/A
8:30 PM81 °FPassing clouds.2 mph62%29.98 "HgN/A
8:00 PM84 °FPassing clouds.3 mph45%29.98 "HgN/A
7:30 PM84 °FPassing clouds.6 mph45%29.98 "HgN/A
7:00 PM86 °FPassing clouds.5 mph43%29.98 "HgN/A
6:30 PM86 °FPassing clouds.3 mph43%29.98 "HgN/A
6:00 PM84 °FPassing clouds.5 mph45%29.98 "HgN/A
5:30 PM84 °FPassing clouds.2 mph51%29.98 "HgN/A
5:00 PM84 °FPassing clouds.2 mph51%29.98 "HgN/A
4:30 PM84 °FPassing clouds.3 mph55%30.01 "HgN/A
4:00 PM81 °FPassing clouds.3 mph62%30.01 "HgN/A
3:30 PM79 °FPassing clouds.6 mph65%30.01 "HgN/A
3:00 PM79 °FPassing clouds.7 mph65%30.01 "HgN/A
2:30 PM75 °FPassing clouds.7 mph69%30.01 "HgN/A
2:00 PM73 °FPassing clouds.9 mph74%30.01 "HgN/A
1:30 PM75 °FPassing clouds.9 mph69%30.04 "HgN/A
1:00 PM73 °FPassing clouds.8 mph74%30.04 "HgN/A
12:30 PM72 °FPassing clouds.8 mph78%30.04 "HgN/A
12:00 PM70 °FPassing clouds.9 mph78%30.04 "HgN/A
11:30 AM66 °FScattered clouds.7 mph88%30.04 "HgN/A
11:00 AM66 °FBroken clouds.9 mph88%30.04 "HgN/A
10:30 AM64 °FBroken clouds.9 mph94%30.04 "Hg6 mi
10:00 AM63 °FBroken clouds.5 mph94%30.04 "Hg5 mi
9:30 AM63 °FMore clouds than sun.7 mph94%30.04 "HgN/A
9:00 AM63 °FMore clouds than sun.9 mph94%30.04 "Hg4 mi
8:52 AM63 °FMore clouds than sun.9 mph94%30.04 "Hg4 mi
8:30 AM63 °FFog.10 mph94%30.04 "Hg2 mi
8:00 AM63 °FFog.10 mph94%30.04 "Hg1 mi
7:51 AM63 °FLow clouds.12 mph94%30.04 "Hg1 mi
7:30 AM63 °FFog.9 mph94%30.04 "Hg1 mi
7:00 AM63 °FFog.7 mph94%30.07 "Hg2 mi
6:30 AM63 °FFog.9 mph94%30.04 "Hg2 mi
6:00 AM63 °FFog.10 mph94%30.04 "Hg2 mi
5:30 AM63 °FFog.9 mph94%30.04 "Hg2 mi
5:00 AM63 °FFog.8 mph94%30.07 "Hg3 mi
4:30 AM63 °FLow clouds.9 mph94%30.07 "Hg5 mi
4:00 AM63 °FLow clouds.9 mph94%30.07 "Hg5 mi
3:30 AM63 °FLow clouds.8 mph94%30.07 "Hg5 mi
3:00 AM63 °FLow clouds.3 mph94%30.07 "Hg5 mi
2:30 AM63 °FFog.7 mph94%30.07 "Hg3 mi
2:00 AM63 °FFog.9 mph94%30.07 "Hg3 mi
1:30 AM63 °FFog.10 mph94%30.07 "Hg3 mi
1:00 AM63 °FFog.7 mph100%30.07 "Hg2 mi
Weather by CustomWeather, © 2016

See weather overviewHow to use our weather pages